ABY3DF OMDB-OOMS

Flight info

Callsign ABY3DF
Flight time 0h 40m
Altitude 27000
Route ANVIX L223 TARDI DCT GERAR
Aircraft A20N/M-SDE2E3FGHIRWXY/LB1

Departure

Time 2026-05-05 13:33
Airport Dubai International Airport (OMDB)

Arrival

Time 2026-05-05 14:13
Airport Muscat International Airport (OOMS)
Time Latitude Longitude Altitude Speed Heading
2026-05-05 13:13 25.24342 55.37361 10 ft 0 kts 210°
2026-05-05 13:22 25.24350 55.37366 11 ft 2 kts 211°
2026-05-05 13:22 25.24354 55.37368 12 ft 0 kts 211°
2026-05-05 13:22 25.24355 55.37369 10 ft 2 kts 211°
2026-05-05 13:23 25.24369 55.37378 10 ft 2 kts 211°
2026-05-05 13:23 25.24384 55.37388 10 ft 2 kts 211°
2026-05-05 13:23 25.24398 55.37398 10 ft 2 kts 211°
2026-05-05 13:23 25.24412 55.37406 10 ft 2 kts 189°
2026-05-05 13:24 25.24429 55.37407 10 ft 2 kts 169°
2026-05-05 13:24 25.24443 55.37401 11 ft 1 kts 134°
2026-05-05 13:24 25.24446 55.37399 11 ft 0 kts 125°
2026-05-05 13:27 25.24445 55.37400 11 ft 1 kts 125°
2026-05-05 13:27 25.24436 55.37417 11 ft 4 kts 121°
2026-05-05 13:27 25.24413 55.37458 10 ft 8 kts 121°
2026-05-05 13:27 25.24379 55.37520 11 ft 11 kts 123°
2026-05-05 13:28 25.24330 55.37604 11 ft 15 kts 123°
2026-05-05 13:28 25.24282 55.37699 12 ft 7 kts 122°
2026-05-05 13:28 25.24267 55.37760 11 ft 10 kts 72°
2026-05-05 13:28 25.24324 55.37810 11 ft 12 kts 34°
2026-05-05 13:29 25.24346 55.37827 11 ft 0 kts 35°
2026-05-05 13:30 25.24350 55.37830 13 ft 2 kts 35°
2026-05-05 13:30 25.24374 55.37849 11 ft 6 kts 35°
2026-05-05 13:30 25.24417 55.37881 11 ft 9 kts 34°
2026-05-05 13:30 25.24475 55.37925 11 ft 12 kts 34°
2026-05-05 13:31 25.24509 55.37951 13 ft 0 kts 34°
2026-05-05 13:31 25.24521 55.37960 13 ft 4 kts 34°
2026-05-05 13:31 25.24556 55.37987 11 ft 8 kts 34°
2026-05-05 13:31 25.24620 55.38034 14 ft 14 kts 32°
2026-05-05 13:32 25.24705 55.38093 11 ft 14 kts 32°
2026-05-05 13:32 25.24764 55.38096 11 ft 6 kts 309°
2026-05-05 13:32 25.24798 55.38042 12 ft 16 kts 303°
2026-05-05 13:32 25.24979 55.37719 10 ft 83 kts 302°
2026-05-05 13:33 25.25380 55.36992 9 ft 135 kts 301°
2026-05-05 13:33 25.25935 55.35988 145 ft 161 kts 302°
2026-05-05 13:33 25.26458 55.34951 765 ft 156 kts 301°
2026-05-05 13:33 25.27033 55.33858 1171 ft 168 kts 305°
2026-05-05 13:34 25.27674 55.32741 1665 ft 176 kts 307°
2026-05-05 13:34 25.28365 55.31562 2035 ft 193 kts 306°
2026-05-05 13:34 25.29059 55.30193 2326 ft 220 kts 290°
2026-05-05 13:34 25.29133 55.28412 2672 ft 246 kts 256°
2026-05-05 13:35 25.28488 55.26644 3439 ft 248 kts 244°
2026-05-05 13:35 25.27735 55.24959 4332 ft 246 kts 242°
2026-05-05 13:35 25.26966 55.23261 5166 ft 248 kts 242°
2026-05-05 13:35 25.26185 55.21506 5773 ft 260 kts 243°
2026-05-05 13:36 25.25381 55.19658 5895 ft 281 kts 243°
2026-05-05 13:36 25.24283 55.17828 6201 ft 288 kts 220°
2026-05-05 13:36 25.22568 55.16760 7115 ft 278 kts 193°
2026-05-05 13:36 25.20707 55.16644 8283 ft 263 kts 172°
2026-05-05 13:37 25.18967 55.17284 9033 ft 268 kts 146°
2026-05-05 13:37 25.17667 55.18726 9727 ft 273 kts 120°
2026-05-05 13:37 25.16773 55.20623 10242 ft 287 kts 116°
2026-05-05 13:37 25.15832 55.22658 10663 ft 302 kts 117°
2026-05-05 13:38 25.14870 55.24702 11392 ft 305 kts 117°
2026-05-05 13:38 25.13873 55.26791 12127 ft 309 kts 117°
2026-05-05 13:38 25.13204 55.28184 12620 ft 311 kts 118°
2026-05-05 13:38 25.12179 55.30311 13360 ft 315 kts 118°
2026-05-05 13:39 25.11141 55.32462 14030 ft 319 kts 118°
2026-05-05 13:39 25.10175 55.34657 14658 ft 323 kts 114°
2026-05-05 13:39 25.09239 55.36938 15296 ft 327 kts 114°
2026-05-05 13:39 25.08287 55.39248 15937 ft 332 kts 114°
2026-05-05 13:40 25.07335 55.41555 16542 ft 337 kts 114°
2026-05-05 13:40 25.06362 55.43970 16893 ft 352 kts 113°
2026-05-05 13:40 25.05378 55.46534 17074 ft 371 kts 112°
2026-05-05 13:40 25.04358 55.49218 17250 ft 388 kts 112°
2026-05-05 13:41 25.03309 55.51969 17663 ft 396 kts 112°
2026-05-05 13:41 25.02210 55.54798 18211 ft 401 kts 115°
2026-05-05 13:41 25.00883 55.57475 18721 ft 404 kts 121°
2026-05-05 13:41 24.99421 55.60158 19264 ft 407 kts 121°
2026-05-05 13:42 24.97973 55.62830 19786 ft 410 kts 121°
2026-05-05 13:42 24.96504 55.65547 20302 ft 414 kts 121°
2026-05-05 13:42 24.95019 55.68294 20830 ft 418 kts 121°
2026-05-05 13:42 24.93434 55.71000 21339 ft 421 kts 126°
2026-05-05 13:43 24.91714 55.73579 21852 ft 424 kts 126°
2026-05-05 13:43 24.89957 55.76224 22359 ft 428 kts 126°
2026-05-05 13:43 24.88187 55.78892 22847 ft 432 kts 126°
2026-05-05 13:43 24.86423 55.81553 23330 ft 436 kts 126°
2026-05-05 13:44 24.84621 55.84270 23741 ft 439 kts 126°
2026-05-05 13:44 24.82803 55.86996 24159 ft 442 kts 127°
2026-05-05 13:44 24.80975 55.89699 24556 ft 445 kts 127°
2026-05-05 13:44 24.79101 55.92440 24943 ft 448 kts 129°
2026-05-05 13:45 24.77032 55.94993 25324 ft 450 kts 137°
2026-05-05 13:45 24.74723 55.97366 25719 ft 453 kts 139°
2026-05-05 13:45 24.72429 55.99715 26090 ft 456 kts 139°
2026-05-05 13:45 24.70098 56.02108 26471 ft 459 kts 139°
2026-05-05 13:46 24.67780 56.04492 26706 ft 461 kts 139°
2026-05-05 13:46 24.65434 56.06908 26769 ft 462 kts 139°
2026-05-05 13:46 24.63084 56.09329 26772 ft 461 kts 139°
2026-05-05 13:46 24.60729 56.11754 26773 ft 461 kts 139°
2026-05-05 13:47 24.58478 56.14224 26776 ft 463 kts 131°
2026-05-05 13:47 24.56646 56.17168 26636 ft 465 kts 118°
2026-05-05 13:47 24.55356 56.20385 26401 ft 463 kts 111°
2026-05-05 13:47 24.54314 56.23704 26164 ft 460 kts 108°
2026-05-05 13:48 24.53324 56.27052 25928 ft 458 kts 108°
2026-05-05 13:48 24.52321 56.30389 25691 ft 456 kts 109°
2026-05-05 13:48 24.51309 56.33663 25456 ft 455 kts 109°
2026-05-05 13:48 24.50269 56.36955 25222 ft 453 kts 109°
2026-05-05 13:49 24.49236 56.40186 25000 ft 450 kts 109°
2026-05-05 13:49 24.48203 56.43401 24883 ft 449 kts 109°
2026-05-05 13:49 24.47156 56.46653 24756 ft 449 kts 109°
2026-05-05 13:49 24.46124 56.49854 24659 ft 448 kts 109°
2026-05-05 13:50 24.45083 56.53084 24590 ft 447 kts 109°
2026-05-05 13:50 24.44042 56.56311 24416 ft 447 kts 109°
2026-05-05 13:50 24.43004 56.59527 24193 ft 445 kts 109°
2026-05-05 13:50 24.41987 56.62677 23976 ft 442 kts 109°
2026-05-05 13:51 24.40956 56.65865 23758 ft 440 kts 109°
2026-05-05 13:51 24.39932 56.69029 23539 ft 439 kts 109°
2026-05-05 13:51 24.38912 56.72180 23325 ft 437 kts 109°
2026-05-05 13:51 24.37906 56.75282 23069 ft 435 kts 109°
2026-05-05 13:52 24.36893 56.78405 22808 ft 433 kts 109°
2026-05-05 13:52 24.35881 56.81523 22550 ft 431 kts 109°
2026-05-05 13:52 24.34886 56.84584 22295 ft 429 kts 109°
2026-05-05 13:52 24.33884 56.87666 22039 ft 427 kts 109°
2026-05-05 13:53 24.32887 56.90730 21794 ft 425 kts 109°
2026-05-05 13:53 24.31905 56.93746 21553 ft 423 kts 109°
2026-05-05 13:53 24.30914 56.96787 21300 ft 421 kts 109°
2026-05-05 13:53 24.29928 56.99810 21055 ft 419 kts 109°
2026-05-05 13:54 24.28944 57.02827 20808 ft 418 kts 109°
2026-05-05 13:54 24.27978 57.05783 20570 ft 416 kts 109°
2026-05-05 13:54 24.27003 57.08765 20324 ft 414 kts 109°
2026-05-05 13:54 24.26031 57.11737 20090 ft 412 kts 109°
2026-05-05 13:55 24.25064 57.14692 19861 ft 411 kts 109°
2026-05-05 13:55 24.24101 57.17631 19622 ft 409 kts 109°
2026-05-05 13:55 24.23140 57.20560 19385 ft 407 kts 109°
2026-05-05 13:55 24.22195 57.23440 19161 ft 406 kts 109°
2026-05-05 13:56 24.21242 57.26342 18930 ft 404 kts 109°
2026-05-05 13:56 24.20288 57.29248 18703 ft 402 kts 109°
2026-05-05 13:56 24.19341 57.32128 18482 ft 401 kts 109°
2026-05-05 13:56 24.18408 57.34963 18260 ft 399 kts 109°
2026-05-05 13:57 24.17466 57.37823 18033 ft 397 kts 109°
2026-05-05 13:57 24.16529 57.40667 17777 ft 395 kts 109°
2026-05-05 13:57 24.15594 57.43504 17520 ft 394 kts 109°
2026-05-05 13:57 24.14674 57.46294 17265 ft 392 kts 109°
2026-05-05 13:58 24.13747 57.49103 17018 ft 390 kts 109°
2026-05-05 13:58 24.12821 57.51905 16766 ft 389 kts 109°
2026-05-05 13:58 24.11909 57.54665 16520 ft 387 kts 109°
2026-05-05 13:58 24.10975 57.57442 16267 ft 386 kts 112°
2026-05-05 13:59 24.07700 57.62003 15187 ft 387 kts 145°
2026-05-05 13:59 24.05423 57.63567 14591 ft 386 kts 149°
2026-05-05 14:00 24.00890 57.66603 13468 ft 381 kts 149°
2026-05-05 14:00 23.98634 57.68121 13033 ft 374 kts 149°
2026-05-05 14:00 23.96463 57.69586 12879 ft 359 kts 149°
2026-05-05 14:00 23.94399 57.70979 12746 ft 345 kts 149°
2026-05-05 14:01 23.92386 57.72338 12619 ft 331 kts 149°
2026-05-05 14:01 23.90476 57.73627 12502 ft 319 kts 149°
2026-05-05 14:01 23.88606 57.74911 12190 ft 313 kts 146°
2026-05-05 14:01 23.86941 57.76404 11837 ft 311 kts 139°
2026-05-05 14:02 23.85346 57.77999 11458 ft 308 kts 139°
2026-05-05 14:02 23.83770 57.79563 11108 ft 305 kts 140°
2026-05-05 14:02 23.82213 57.81102 10734 ft 302 kts 140°
2026-05-05 14:02 23.80663 57.82630 10358 ft 300 kts 140°
2026-05-05 14:03 23.79113 57.84157 10114 ft 292 kts 140°
2026-05-05 14:03 23.77641 57.85608 10020 ft 280 kts 140°
2026-05-05 14:03 23.76234 57.86996 9911 ft 266 kts 140°
2026-05-05 14:03 23.74919 57.88294 9785 ft 249 kts 140°
2026-05-05 14:04 23.73669 57.89528 9657 ft 230 kts 141°
2026-05-05 14:04 23.72522 57.90660 9475 ft 216 kts 141°
2026-05-05 14:04 23.71438 57.91727 9326 ft 199 kts 141°
2026-05-05 14:04 23.70458 57.92693 9203 ft 182 kts 141°
2026-05-05 14:05 23.69564 57.93573 9046 ft 168 kts 142°
2026-05-05 14:05 23.68693 57.94426 8752 ft 166 kts 142°
2026-05-05 14:05 23.67840 57.95259 8421 ft 165 kts 142°
2026-05-05 14:05 23.66981 57.96098 8105 ft 165 kts 141°
2026-05-05 14:06 23.66137 57.96927 7788 ft 165 kts 141°
2026-05-05 14:06 23.65298 57.97752 7567 ft 159 kts 141°
2026-05-05 14:06 23.64507 57.98533 7420 ft 150 kts 141°
2026-05-05 14:06 23.63702 57.99321 7010 ft 160 kts 141°
2026-05-05 14:07 23.62843 58.00158 6570 ft 171 kts 141°
2026-05-05 14:07 23.61931 58.01047 6112 ft 182 kts 140°
2026-05-05 14:07 23.60985 58.01975 5740 ft 181 kts 140°
2026-05-05 14:07 23.60092 58.02856 5491 ft 163 kts 140°
2026-05-05 14:08 23.59379 58.03770 5034 ft 163 kts 120°
2026-05-05 14:08 23.59090 58.05000 4308 ft 175 kts 94°
2026-05-05 14:08 23.59235 58.06379 3280 ft 194 kts 78°
2026-05-05 14:08 23.59540 58.07779 2761 ft 184 kts 92°
2026-05-05 14:09 23.59459 58.09092 2651 ft 161 kts 96°
2026-05-05 14:09 23.59424 58.10219 2575 ft 141 kts 91°
2026-05-05 14:09 23.59457 58.11307 2430 ft 146 kts 89°
2026-05-05 14:09 23.59530 58.12411 2262 ft 147 kts 88°
2026-05-05 14:10 23.59615 58.13522 2092 ft 150 kts 87°
2026-05-05 14:10 23.59704 58.14640 1917 ft 144 kts 87°
2026-05-05 14:10 23.59791 58.15741 1742 ft 146 kts 86°
2026-05-05 14:10 23.59877 58.16828 1557 ft 143 kts 86°
2026-05-05 14:11 23.59963 58.17913 1397 ft 144 kts 86°
2026-05-05 14:11 23.60049 58.18990 1228 ft 135 kts 85°
2026-05-05 14:11 23.60126 58.19957 1057 ft 124 kts 86°
2026-05-05 14:11 23.60201 58.20912 918 ft 130 kts 86°
2026-05-05 14:12 23.60279 58.21873 753 ft 124 kts 84°
2026-05-05 14:12 23.60354 58.22833 588 ft 132 kts 81°
2026-05-05 14:12 23.60435 58.23838 416 ft 132 kts 83°
2026-05-05 14:12 23.60503 58.24825 252 ft 125 kts 82°
2026-05-05 14:13 23.60583 58.25753 88 ft 122 kts 81°
2026-05-05 14:13 23.60661 58.26611 35 ft 83 kts 85°
2026-05-05 14:13 23.60696 58.27071 36 ft 56 kts 84°
2026-05-05 14:13 23.60728 58.27466 34 ft 49 kts 85°
2026-05-05 14:14 23.60760 58.27820 33 ft 45 kts 86°
2026-05-05 14:14 23.60782 58.28147 33 ft 41 kts 86°
2026-05-05 14:14 23.60734 58.28415 35 ft 14 kts 115°
2026-05-05 14:14 23.60719 58.28451 34 ft 0 kts 115°
2026-05-05 14:15 23.60718 58.28453 35 ft 1 kts 115°
2026-05-05 14:15 23.60716 58.28458 34 ft 0 kts 115°
2026-05-05 14:15 23.60712 58.28466 34 ft 3 kts 115°
2026-05-05 14:15 23.60705 58.28483 34 ft 4 kts 115°
2026-05-05 14:16 23.60699 58.28497 33 ft 0 kts 115°
2026-05-05 14:16 23.60692 58.28514 34 ft 6 kts 115°
2026-05-05 14:16 23.60670 58.28566 33 ft 6 kts 115°
2026-05-05 14:17 23.60650 58.28612 34 ft 8 kts 115°
2026-05-05 14:17 23.60620 58.28652 33 ft 1 kts 149°
2026-05-05 14:17 23.60611 58.28655 34 ft 0 kts 160°
2026-05-05 14:17 23.60602 58.28657 34 ft 3 kts 169°
2026-05-05 14:18 23.60569 58.28644 34 ft 7 kts 224°
2026-05-05 14:18 23.60553 58.28588 34 ft 9 kts 274°
2026-05-05 14:18 23.60548 58.28508 34 ft 13 kts 264°
2026-05-05 14:18 23.60506 58.28437 34 ft 12 kts 186°
2026-05-05 14:19 23.60409 58.28444 34 ft 16 kts 175°
2026-05-05 14:19 23.60357 58.28448 34 ft 0 kts 173°
2026-05-05 14:19 23.60354 58.28449 34 ft 2 kts 173°
2026-05-05 14:19 23.60320 58.28456 34 ft 7 kts 160°
2026-05-05 14:20 23.60281 58.28501 34 ft 10 kts 107°
2026-05-05 14:20 23.60284 58.28579 34 ft 8 kts 85°
2026-05-05 14:20 23.60284 58.28581 34 ft 0 kts 85°